Voltar ao catálogo

COSMOS 1305

AtivoMilitarHEO
NORAD 12818·PAYLOAD·🇷🇺 Russia

Lançado Sep 11, 1981 de Plesetsk Cosmodrome

Loading…

Próximas Passagens (próximas 24 horas)

TLE

AtualizadoSource: Space-Track

Época: Sep 14, 2026, 02:08 UTC

1 12818U 81088A   26257.08954555  .00000038  00000-0  19214-3 0  9999
2 12818  62.7849 302.5336 4897754 273.4553  34.0533  5.46291795897610

Acompanhe COSMOS 1305 em tempo real com AllMySat

Download on the App Store